| time (UTC) | temp F | wind direction | speed MPH | gust MPH | rain 1hr in | rain 24hr in | rain mn in | humidity % | barometer mb |
| 20260503184008 | 61 | 203 | 4.0 | 15.0 | 0.00 | 0.00 | 0.00 | 34 | 1010.6 |
| 20260503183505 | 61 | 141 | 10.0 | 22.0 | 0.00 | 0.00 | 0.00 | 34 | 1010.6 |
| 20260503183002 | 61 | 297 | 9.0 | 22.0 | 0.00 | 0.00 | 0.00 | 34 | 1010.7 |
| 20260503182501 | 63 | 290 | 12.0 | 18.0 | 0.00 | 0.00 | 0.00 | 34 | 1010.7 |
| 20260503181958 | 61 | 186 | 9.0 | 10.0 | 0.00 | 0.00 | 0.00 | 34 | 1011.1 |
| 20260503181455 | 62 | 303 | 13.0 | 17.0 | 0.00 | 0.00 | 0.00 | 33 | 1011.1 |
| 20260503180950 | 63 | 268 | 6.0 | 21.0 | 0.00 | 0.00 | 0.00 | 34 | 1011.0 |
| 20260503180449 | 63 | 110 | 3.0 | 15.0 | 0.00 | 0.00 | 0.00 | 36 | 1011.0 |
| 20260503175945 | 62 | 275 | 8.0 | 11.0 | 0.00 | 0.00 | 0.00 | 35 | 1011.3 |
| 20260503175444 | 62 | 100 | 4.0 | 9.0 | 0.00 | 0.00 | 0.00 | 36 | 1011.3 |
| 20260503174939 | 60 | 28 | 5.0 | 22.0 | 0.00 | 0.00 | 0.00 | 36 | 1011.4 |
| 20260503174437 | 60 | 333 | 9.0 | 15.0 | 0.00 | 0.00 | 0.00 | 38 | 1011.4 |
| 20260503173932 | 61 | 234 | 4.0 | 9.0 | 0.00 | 0.00 | 0.00 | 40 | 1011.4 |
| 20260503173428 | 60 | 220 | 8.0 | 10.0 | 0.00 | 0.00 | 0.00 | 38 | 1011.7 |
| 20260503172925 | 60 | 261 | 6.0 | 13.0 | 0.00 | 0.00 | 0.00 | 39 | 1011.8 |
| 20260503172423 | 59 | 313 | 5.0 | 17.0 | 0.00 | 0.00 | 0.00 | 39 | 1011.8 |
| 20260503171919 | 59 | 188 | 6.0 | 13.0 | 0.00 | 0.00 | 0.00 | 39 | 1011.7 |
| 20260503171416 | 59 | 289 | 5.0 | 18.0 | 0.00 | 0.00 | 0.00 | 39 | 1012.0 |
| 20260503170913 | 59 | 272 | 5.0 | 7.0 | 0.00 | 0.00 | 0.00 | 41 | 1011.9 |
| 20260503170409 | 59 | 290 | 6.0 | 9.0 | 0.00 | 0.00 | 0.00 | 39 | 1011.8 |
| 20260503150802 | 58 | 234 | 8.0 | 9.0 | 0.00 | 0.00 | 0.00 | 39 | 1013.1 |
| 20260503150257 | 59 | 320 | 9.0 | 11.0 | 0.00 | 0.00 | 0.00 | 38 | 1013.1 |
| 20260503140222 | 54 | 195 | 9.0 | 15.0 | 0.00 | 0.00 | 0.00 | 43 | 1013.3 |
| 20260503131151 | 51 | 279 | 4.0 | 6.0 | 0.00 | 0.00 | 0.00 | 49 | 1013.5 |
| 20260503130649 | 50 | 186 | 5.0 | 7.0 | 0.00 | 0.00 | 0.00 | 50 | 1013.6 |
| 20260503130147 | 49 | 264 | 2.0 | 7.0 | 0.00 | 0.00 | 0.00 | 51 | 1013.5 |
| 20260503120112 | 45 | 276 | 3.0 | 7.0 | 0.00 | 0.00 | 0.00 | 54 | 1013.9 |
| 20260503110539 | 41 | 153 | 2.0 | 5.0 | 0.00 | 0.00 | 0.00 | 58 | 1013.8 |
| 20260503090420 | 39 | 286 | 2.0 | 2.0 | 0.00 | 0.00 | 0.00 | 57 | 1014.6 |
| 20260503081347 | 37 | 306 | 0.0 | 1.0 | 0.00 | 0.00 | 0.00 | 59 | 1014.9 |
| 20260503080843 | 37 | 308 | 0.0 | 0.0 | 0.00 | 0.00 | 0.00 | 59 | 1014.8 |
| 20260503080340 | 37 | 320 | 0.0 | 2.0 | 0.00 | 0.00 | 0.00 | 59 | 1014.5 |
| 20260503072817 | 36 | 300 | 0.0 | 1.0 | 0.00 | 0.00 | 0.00 | 62 | 1014.8 |
| 20260503072314 | 36 | 289 | 2.0 | 3.0 | 0.00 | 0.00 | 0.00 | 62 | 1015.0 |
| 20260503071810 | 36 | 284 | 1.0 | 1.0 | 0.00 | 0.00 | 0.00 | 62 | 1015.1 |
| 20260503071308 | 35 | 302 | 0.0 | 2.0 | 0.00 | 0.00 | 0.00 | 63 | 1014.9 |
| 20260503070803 | 36 | 302 | 0.0 | 2.0 | 0.00 | 0.00 | 0.00 | 63 | 1014.9 |
| 20260503070302 | 36 | 312 | 0.0 | 1.0 | 0.00 | 0.00 | 0.00 | 62 | 1015.0 |
| 20260503060221 | 37 | 296 | 0.0 | 1.0 | 0.00 | 0.00 | 0.00 | 63 | 1015.5 |
| 20260503054708 | 37 | 290 | 1.0 | 1.0 | 0.00 | 0.00 | 0.00 | 64 | 1015.5 |
| 20260503054205 | 36 | 310 | 0.0 | 2.0 | 0.00 | 0.00 | 0.00 | 64 | 1015.6 |
| 20260503053703 | 36 | 318 | 1.0 | 1.0 | 0.00 | 0.00 | 0.00 | 66 | 1015.8 |
| 20260503053201 | 35 | 302 | 0.0 | 1.0 | 0.00 | 0.00 | 0.00 | 68 | 1015.6 |
| 20260503052657 | 35 | 303 | 0.0 | 1.0 | 0.00 | 0.00 | 0.00 | 70 | 1015.8 |
| 20260503052153 | 35 | 298 | 0.0 | 1.0 | 0.00 | 0.00 | 0.00 | 72 | 1015.6 |
| 20260503051649 | 34 | 291 | 0.0 | 0.0 | 0.00 | 0.00 | 0.00 | 72 | 1015.6 |
| 20260503051147 | 34 | 281 | 0.0 | 1.0 | 0.00 | 0.00 | 0.00 | 74 | 1015.8 |
| 20260503050643 | 33 | 287 | 0.0 | 0.0 | 0.00 | 0.00 | 0.00 | 76 | 1015.5 |
| 20260503050140 | 33 | 287 | 0.0 | 0.0 | 0.00 | 0.00 | 0.00 | 77 | 1015.7 |
| 20260503045637 | 33 | 283 | 0.0 | 0.0 | 0.00 | 0.00 | 0.00 | 78 | 1015.7 |
| 20260503045134 | 32 | 288 | 0.0 | 0.0 | 0.00 | 0.00 | 0.00 | 81 | 1015.9 |
| 20260503044631 | 32 | 288 | 0.0 | 0.0 | 0.00 | 0.00 | 0.00 | 81 | 1015.6 |
| 20260503044129 | 32 | 287 | 0.0 | 0.0 | 0.00 | 0.00 | 0.00 | 82 | 1015.7 |
| 20260503043625 | 31 | 287 | 0.0 | 0.0 | 0.00 | 0.00 | 0.00 | 81 | 1015.8 |
| 20260503043122 | 32 | 287 | 0.0 | 0.0 | 0.00 | 0.00 | 0.00 | 81 | 1015.7 |
| 20260503042619 | 32 | 286 | 0.0 | 0.0 | 0.00 | 0.00 | 0.00 | 81 | 1015.7 |
| 20260503042115 | 32 | 286 | 0.0 | 0.0 | 0.00 | 0.00 | 0.00 | 81 | 1015.6 |
| 20260503041612 | 32 | 288 | 0.0 | 0.0 | 0.00 | 0.00 | 0.00 | 81 | 1015.9 |
| 20260503041110 | 32 | 288 | 0.0 | 0.0 | 0.00 | 0.00 | 0.00 | 81 | 1015.7 |
| 20260503040606 | 32 | 288 | 0.0 | 0.0 | 0.00 | 0.00 | 0.00 | 81 | 1015.8 |
| 20260503040103 | 32 | 288 | 0.0 | 0.0 | 0.00 | 0.00 | 0.00 | 82 | 1015.8 |
| 20260503035600 | 32 | 288 | 0.0 | 0.0 | 0.00 | 0.00 | 0.00 | 82 | 1016.0 |
| 20260503035058 | 32 | 288 | 0.0 | 0.0 | 0.00 | 0.00 | 0.00 | 82 | 1015.9 |
| 20260503034555 | 33 | 288 | 0.0 | 0.0 | 0.00 | 0.00 | 0.00 | 82 | 1016.0 |
| 20260503034052 | 32 | 288 | 0.0 | 0.0 | 0.00 | 0.00 | 0.00 | 82 | 1016.0 |
| 20260503033549 | 32 | 288 | 0.0 | 0.0 | 0.00 | 0.00 | 0.00 | 82 | 1015.9 |
| 20260503033047 | 32 | 288 | 0.0 | 0.0 | 0.00 | 0.00 | 0.00 | 82 | 1016.3 |
| 20260503032545 | 33 | 288 | 0.0 | 0.0 | 0.00 | 0.00 | 0.00 | 82 | 1015.9 |
| 20260503032043 | 32 | 287 | 0.0 | 0.0 | 0.00 | 0.00 | 0.00 | 82 | 1015.9 |
| 20260503031540 | 33 | 287 | 0.0 | 0.0 | 0.00 | 0.00 | 0.00 | 82 | 1015.8 |
| 20260503031038 | 33 | 287 | 0.0 | 1.0 | 0.00 | 0.00 | 0.00 | 82 | 1016.0 |
| 20260503030533 | 33 | 273 | 0.0 | 0.0 | 0.00 | 0.00 | 0.00 | 82 | 1015.9 |
| 20260503030031 | 33 | 273 | 0.0 | 0.0 | 0.00 | 0.00 | 0.00 | 82 | 1016.0 |
| 20260503025527 | 33 | 273 | 0.0 | 0.0 | 0.00 | 0.00 | 0.00 | 81 | 1015.9 |
| 20260503025025 | 34 | 273 | 0.0 | 0.0 | 0.00 | 0.00 | 0.00 | 81 | 1016.0 |
| 20260503024521 | 34 | 273 | 0.0 | 0.0 | 0.00 | 0.00 | 0.00 | 81 | 1016.3 |
| 20260503024018 | 34 | 273 | 0.0 | 0.0 | 0.00 | 0.00 | 0.00 | 80 | 1016.0 |
| 20260503023515 | 34 | 273 | 0.0 | 0.0 | 0.00 | 0.00 | 0.00 | 80 | 1016.2 |
| 20260503023012 | 35 | 273 | 0.0 | 0.0 | 0.00 | 0.00 | 0.00 | 79 | 1016.3 |
| 20260503022508 | 35 | 273 | 0.0 | 0.0 | 0.00 | 0.00 | 0.00 | 78 | 1016.2 |
| 20260503022003 | 35 | 273 | 0.0 | 0.0 | 0.00 | 0.00 | 0.00 | 76 | 1016.2 |
| 20260503021500 | 35 | 273 | 0.0 | 0.0 | 0.00 | 0.00 | 0.00 | 76 | 1016.2 |
| 20260503020957 | 35 | 273 | 0.0 | 0.0 | 0.00 | 0.00 | 0.00 | 76 | 1016.2 |
| 20260503020455 | 36 | 273 | 0.0 | 0.0 | 0.00 | 0.00 | 0.00 | 75 | 1016.3 |
| 20260503015951 | 36 | 273 | 0.0 | 0.0 | 0.00 | 0.00 | 0.00 | 75 | 1016.0 |
| 20260503015448 | 37 | 273 | 0.0 | 0.0 | 0.00 | 0.00 | 0.00 | 73 | 1016.2 |
| 20260503014944 | 37 | 274 | 0.0 | 0.0 | 0.00 | 0.00 | 0.00 | 72 | 1016.0 |
| 20260503014441 | 37 | 264 | 0.0 | 1.0 | 0.00 | 0.00 | 0.00 | 71 | 1015.9 |
| 20260503013939 | 38 | 236 | 0.0 | 0.0 | 0.00 | 0.00 | 0.00 | 69 | 1015.8 |
| 20260503013436 | 38 | 236 | 0.0 | 0.0 | 0.00 | 0.00 | 0.00 | 68 | 1015.8 |
| 20260503012933 | 38 | 236 | 0.0 | 0.0 | 0.00 | 0.00 | 0.00 | 67 | 1016.0 |
| 20260503012431 | 39 | 236 | 0.0 | 1.0 | 0.00 | 0.00 | 0.00 | 67 | 1016.0 |
| 20260503011927 | 40 | 231 | 0.0 | 1.0 | 0.00 | 0.00 | 0.00 | 64 | 1015.8 |
| 20260503011424 | 40 | 218 | 0.0 | 0.0 | 0.00 | 0.00 | 0.00 | 60 | 1015.8 |
| 20260503010921 | 41 | 218 | 0.0 | 0.0 | 0.00 | 0.00 | 0.00 | 59 | 1015.9 |
| 20260503010418 | 41 | 218 | 0.0 | 0.0 | 0.00 | 0.00 | 0.00 | 57 | 1015.9 |
| 20260503005915 | 42 | 218 | 0.0 | 0.0 | 0.00 | 0.00 | 0.00 | 57 | 1015.6 |
| 20260503005412 | 42 | 218 | 0.0 | 0.0 | 0.00 | 0.00 | 0.00 | 57 | 1015.7 |
| 20260503004909 | 43 | 217 | 1.0 | 1.0 | 0.00 | 0.00 | 0.00 | 57 | 1015.6 |
| 20260503004406 | 43 | 240 | 0.0 | 0.0 | 0.00 | 0.00 | 0.00 | 56 | 1015.6 |
| 20260503003904 | 44 | 241 | 0.0 | 0.0 | 0.00 | 0.00 | 0.00 | 53 | 1015.6 |
| 20260503003400 | 44 | 241 | 0.0 | 0.0 | 0.00 | 0.00 | 0.00 | 51 | 1015.6 |
| 20260503002857 | 44 | 240 | 0.0 | 1.0 | 0.00 | 0.00 | 0.00 | 51 | 1015.8 |
| 20260503002355 | 45 | 254 | 0.0 | 1.0 | 0.00 | 0.00 | 0.00 | 49 | 1015.6 |
| 20260503001850 | 45 | 277 | 1.0 | 1.0 | 0.00 | 0.00 | 0.00 | 48 | 1015.8 |
| 20260503001347 | 45 | 200 | 1.0 | 2.0 | 0.00 | 0.00 | 0.00 | 48 | 1015.5 |
| 20260503000845 | 46 | 227 | 0.0 | 1.0 | 0.00 | 0.00 | 0.00 | 48 | 1015.7 |
| 20260503000342 | 46 | 273 | 0.0 | 1.0 | 0.00 | 0.00 | 0.00 | 48 | 1015.6 |
| 20260502235838 | 46 | 295 | 2.0 | 3.0 | 0.00 | 0.00 | 0.00 | 45 | 1015.7 |
| 20260502235336 | 47 | 324 | 0.0 | 1.0 | 0.00 | 0.00 | 0.00 | 44 | 1015.6 |
| 20260502234833 | 47 | 298 | 1.0 | 2.0 | 0.00 | 0.00 | 0.00 | 44 | 1015.7 |
| 20260502234330 | 47 | 259 | 1.0 | 3.0 | 0.00 | 0.00 | 0.00 | 44 | 1015.7 |
| 20260502233826 | 47 | 291 | 1.0 | 3.0 | 0.00 | 0.00 | 0.00 | 44 | 1015.5 |
| 20260502233322 | 47 | 282 | 3.0 | 5.0 | 0.00 | 0.00 | 0.00 | 43 | 1015.7 |
| 20260502232819 | 47 | 265 | 2.0 | 2.0 | 0.00 | 0.00 | 0.00 | 44 | 1015.6 |
| 20260502232316 | 47 | 293 | 3.0 | 5.0 | 0.00 | 0.00 | 0.00 | 43 | 1015.9 |
| 20260502231812 | 47 | 302 | 2.0 | 5.0 | 0.00 | 0.00 | 0.00 | 43 | 1015.7 |
| 20260502231310 | 47 | 292 | 1.0 | 3.0 | 0.00 | 0.00 | 0.00 | 43 | 1015.8 |
| 20260502230808 | 47 | 309 | 3.0 | 3.0 | 0.00 | 0.00 | 0.00 | 44 | 1015.8 |
| 20260502230306 | 47 | 285 | 1.0 | 2.0 | 0.00 | 0.00 | 0.00 | 44 | 1015.8 |
| 20260502225802 | 47 | 338 | 1.0 | 5.0 | 0.00 | 0.00 | 0.00 | 44 | 1015.8 |
| 20260502225259 | 47 | 323 | 4.0 | 5.0 | 0.00 | 0.00 | 0.00 | 42 | 1015.7 |
| 20260502224755 | 47 | 299 | 3.0 | 7.0 | 0.00 | 0.00 | 0.00 | 42 | 1015.7 |
| 20260502224252 | 47 | 250 | 2.0 | 7.0 | 0.00 | 0.00 | 0.00 | 42 | 1015.7 |
| 20260502223749 | 47 | 285 | 3.0 | 6.0 | 0.00 | 0.00 | 0.00 | 43 | 1015.8 |
| 20260502223248 | 47 | 338 | 3.0 | 6.0 | 0.00 | 0.00 | 0.00 | 43 | 1015.8 |
| 20260502222745 | 48 | 284 | 2.0 | 5.0 | 0.00 | 0.00 | 0.00 | 41 | 1015.5 |
| 20260502222242 | 48 | 326 | 3.0 | 3.0 | 0.00 | 0.00 | 0.00 | 42 | 1015.8 |
| 20260502221738 | 47 | 303 | 1.0 | 3.0 | 0.00 | 0.00 | 0.00 | 43 | 1015.7 |
| 20260502221234 | 47 | 290 | 2.0 | 7.0 | 0.00 | 0.00 | 0.00 | 42 | 1015.9 |
| 20260502220731 | 47 | 291 | 7.0 | 8.0 | 0.00 | 0.00 | 0.00 | 43 | 1015.9 |
| 20260502220227 | 47 | 238 | 4.0 | 6.0 | 0.00 | 0.00 | 0.00 | 42 | 1015.6 |
| 20260502215724 | 47 | 297 | 4.0 | 9.0 | 0.00 | 0.00 | 0.00 | 41 | 1015.8 |
| 20260502215221 | 48 | 320 | 4.0 | 8.0 | 0.00 | 0.00 | 0.00 | 41 | 1015.9 |
| 20260502214718 | 48 | 240 | 5.0 | 8.0 | 0.00 | 0.00 | 0.00 | 39 | 1015.8 |
| 20260502214215 | 49 | 8 | 6.0 | 9.0 | 0.00 | 0.00 | 0.00 | 40 | 1015.9 |
| 20260502213713 | 47 | 325 | 3.0 | 5.0 | 0.00 | 0.00 | 0.00 | 42 | 1016.3 |
| 20260502213210 | 47 | 331 | 6.0 | 7.0 | 0.00 | 0.00 | 0.00 | 41 | 1015.8 |
| 20260502212708 | 47 | 293 | 3.0 | 5.0 | 0.00 | 0.00 | 0.00 | 42 | 1016.0 |
| 20260502212206 | 47 | 313 | 3.0 | 7.0 | 0.00 | 0.00 | 0.00 | 41 | 1015.7 |
| 20260502211702 | 47 | 347 | 5.0 | 6.0 | 0.00 | 0.00 | 0.00 | 41 | 1015.8 |
| 20260502211159 | 47 | 5 | 3.0 | 6.0 | 0.00 | 0.00 | 0.00 | 43 | 1016.3 |
| 20260502210656 | 47 | 331 | 2.0 | 5.0 | 0.00 | 0.00 | 0.00 | 41 | 1015.8 |
| 20260502210153 | 48 | 279 | 4.0 | 5.0 | 0.00 | 0.00 | 0.00 | 43 | 1016.0 |
| 20260502205650 | 47 | 285 | 5.0 | 8.0 | 0.00 | 0.00 | 0.00 | 41 | 1016.0 |
| 20260502205147 | 47 | 247 | 1.0 | 5.0 | 0.00 | 0.00 | 0.00 | 41 | 1015.9 |
| 20260502204643 | 47 | 275 | 4.0 | 6.0 | 0.00 | 0.00 | 0.00 | 42 | 1015.9 |
| 20260502204141 | 47 | 275 | 2.0 | 5.0 | 0.00 | 0.00 | 0.00 | 44 | 1016.0 |
| 20260502203638 | 46 | 336 | 4.0 | 7.0 | 0.00 | 0.00 | 0.00 | 43 | 1016.2 |
| 20260502203137 | 46 | 295 | 2.0 | 5.0 | 0.00 | 0.00 | 0.00 | 44 | 1016.4 |
| 20260502202631 | 46 | 324 | 5.0 | 8.0 | 0.00 | 0.00 | 0.00 | 42 | 1016.3 |
| 20260502202129 | 46 | 327 | 6.0 | 9.0 | 0.00 | 0.00 | 0.00 | 41 | 1016.2 |
| 20260502201625 | 47 | 258 | 2.0 | 7.0 | 0.00 | 0.00 | 0.00 | 42 | 1016.4 |
| 20260502201122 | 47 | 271 | 4.0 | 9.0 | 0.00 | 0.00 | 0.00 | 40 | 1016.2 |
| 20260502200618 | 47 | 326 | 4.0 | 5.0 | 0.00 | 0.00 | 0.00 | 42 | 1016.4 |
| 20260502200115 | 46 | 296 | 4.0 | 5.0 | 0.00 | 0.00 | 0.00 | 44 | 1016.4 |
| 20260502195614 | 47 | 328 | 4.0 | 8.0 | 0.00 | 0.00 | 0.00 | 41 | 1016.4 |
| 20260502195109 | 47 | 327 | 2.0 | 7.0 | 0.00 | 0.00 | 0.00 | 41 | 1016.5 |
| 20260502194606 | 47 | 303 | 5.0 | 7.0 | 0.00 | 0.00 | 0.00 | 42 | 1016.7 |
| 20260502194102 | 46 | 110 | 1.0 | 5.0 | 0.00 | 0.00 | 0.00 | 44 | 1016.8 |
| 20260502193600 | 46 | 300 | 2.0 | 7.0 | 0.00 | 0.00 | 0.00 | 42 | 1016.7 |
| 20260502193056 | 47 | 342 | 4.0 | 7.0 | 0.00 | 0.00 | 0.00 | 41 | 1016.7 |
| 20260502192551 | 47 | 357 | 1.0 | 2.0 | 0.00 | 0.00 | 0.00 | 43 | 1016.7 |
| 20260502192049 | 47 | 243 | 1.0 | 2.0 | 0.00 | 0.00 | 0.00 | 41 | 1016.8 |
| 20260502191546 | 47 | 240 | 4.0 | 9.0 | 0.00 | 0.00 | 0.00 | 41 | 1016.8 |
| 20260502191044 | 47 | 280 | 5.0 | 7.0 | 0.00 | 0.00 | 0.00 | 41 | 1016.9 |
| 20260502190541 | 47 | 295 | 4.0 | 6.0 | 0.00 | 0.00 | 0.00 | 42 | 1016.6 |
| 20260502190038 | 47 | 302 | 3.0 | 5.0 | 0.00 | 0.00 | 0.00 | 40 | 1017.0 |
| 20260502185533 | 46 | 304 | 3.0 | 10.0 | 0.00 | 0.00 | 0.00 | 41 | 1017.0 |
| 20260502185030 | 46 | 224 | 5.0 | 7.0 | 0.00 | 0.00 | 0.00 | 41 | 1017.0 |
| 20260502184526 | 47 | 313 | 3.0 | 10.0 | 0.00 | 0.00 | 0.00 | 40 | 1017.0 |